OK9DOB-5 Weather Reports


time (UTC)temp
C
wind
direction
speed
KPH
gust
KPH
rain 1hr
cm
rain 24hr
cm
rain mn
cm
humidity
%
barometer
mb
20260507211352 12 0.0 0.0 0.00 0.00 0.00 95
20260507210350 11 0.0 0.0 0.00 0.00 0.00 95
20260507205347 11 0.0 0.0 0.00 0.00 0.00 94
20260507204345 11 0.0 0.0 0.00 0.00 0.00 94
20260507203343 11 0.0 0.0 0.00 0.00 0.00 95
20260507202340 11 0.0 0.0 0.00 0.00 0.00 92
20260507201337 11 0.0 0.0 0.00 0.00 0.00 94
20260507200335 11 0.0 0.0 0.00 0.00 0.00 92
20260507195333 11 0.0 0.0 0.00 0.00 0.00 91
20260507194330 11 0.0 0.0 0.00 0.00 0.00 89
20260507193327 11 0.0 0.0 0.00 0.00 0.00 88
20260507192323 11 0.0 0.0 0.00 0.00 0.00 87
20260507191321 11 0.0 0.0 0.00 0.00 0.00 89
20260507190314 11 0.0 0.0 0.00 0.00 0.00 88
20260507185312 11 0.0 0.0 0.00 0.00 0.00 85
20260507184309 11 0.0 0.0 0.00 0.00 0.00 86
20260507183307 12 0.0 0.0 0.00 0.00 0.00 84
20260507182306 13 0.0 0.0 0.00 0.00 0.00 82
20260507181302 13 0.0 0.0 0.00 0.00 0.00 81
20260507180259 14 0.0 0.0 0.00 0.00 0.00 79
20260507175257 15 0.0 0.0 0.00 0.00 0.00 77
20260507174255 16 0.0 0.0 0.00 0.00 0.00 75
20260507173252 16 0.0 0.0 0.00 0.00 0.00 72
20260507172250 17 0.0 0.0 0.00 0.00 0.00 73
20260507171247 17 0.0 0.0 0.00 0.00 0.00 71
20260507170245 18 0.0 0.0 0.00 0.00 0.00 71
20260507165242 19 0.0 0.0 0.00 0.00 0.00 69
20260507164240 20 0.0 0.0 0.00 0.00 0.00 67
20260507163237 20 0.0 0.0 0.00 0.00 0.00 67
20260507162235 19 0.0 0.0 0.00 0.00 0.00 68
20260507161232 20 0.0 0.0 0.00 0.00 0.00 67
20260507160229 23 0.0 0.0 0.00 0.00 0.00 60
20260507155227 25 0.0 0.0 0.00 0.00 0.00 59
20260507154224 22 0.0 0.0 0.00 0.00 0.00 63
20260507153222 18 0.0 0.0 0.00 0.00 0.00 69
20260507151217 21 0.0 0.0 0.00 0.00 0.00 65
20260507150215 21 0.0 0.0 0.00 0.00 0.00 64
20260507145212 20 0.0 0.0 0.00 0.00 0.00 67
20260507144210 18 0.0 0.0 0.00 0.00 0.00 70
20260507143207 18 0.0 0.0 0.00 0.00 0.00 70
20260507142205 19 0.0 0.0 0.00 0.00 0.00 68
20260507141202 20 0.0 0.0 0.00 0.00 0.00 67
20260507140200 20 0.0 0.0 0.00 0.00 0.00 66
20260507135157 20 0.0 0.0 0.00 0.00 0.00 66
20260507134155 21 0.0 0.0 0.00 0.00 0.00 65
20260507133152 21 0.0 0.0 0.00 0.00 0.00 63
20260507132150 22 0.0 0.0 0.00 0.00 0.00 60
20260507131147 21 0.0 0.0 0.00 0.00 0.00 63
20260507130145 21 0.0 0.0 0.00 0.00 0.00 64
20260507125142 22 0.0 0.0 0.00 0.00 0.00 63
20260507124140 21 0.0 0.0 0.00 0.00 0.00 67
20260507123137 21 0.0 0.0 0.00 0.00 0.00 67
20260507122135 20 0.0 0.0 0.00 0.00 0.00 68
20260507121132 21 0.0 0.0 0.00 0.00 0.00 67
20260507120130 21 0.0 0.0 0.00 0.00 0.00 67
20260507115127 21 0.0 0.0 0.00 0.00 0.00 67
20260507114125 21 0.0 0.0 0.00 0.00 0.00 67
20260507113122 20 0.0 0.0 0.00 0.00 0.00 71
20260507112120 19 0.0 0.0 0.00 0.00 0.00 69
20260507111118 20 0.0 0.0 0.00 0.00 0.00 72
20260507110115 20 0.0 0.0 0.00 0.00 0.00 70
20260507105113 20 0.0 0.0 0.00 0.00 0.00 71
20260507104110 20 0.0 0.0 0.00 0.00 0.00 71
20260507103108 18 0.0 0.0 0.00 0.00 0.00 72
20260507102105 19 0.0 0.0 0.00 0.00 0.00 72
20260507101103 19 0.0 0.0 0.00 0.00 0.00 72
20260507100100 19 0.0 0.0 0.00 0.00 0.00 74
20260507095058 19 0.0 0.0 0.00 0.00 0.00 74
20260507094055 17 0.0 0.0 0.00 0.00 0.00 76
20260507093053 17 0.0 0.0 0.00 0.00 0.00 77
20260507092050 17 0.0 0.0 0.00 0.00 0.00 77
20260507091048 17 0.0 0.0 0.00 0.00 0.00 79
20260507090046 17 0.0 0.0 0.00 0.00 0.00 80
20260507085043 17 0.0 0.0 0.00 0.00 0.00 78
20260507084041 16 0.0 0.0 0.00 0.00 0.00 80
20260507083038 16 0.0 0.0 0.00 0.00 0.00 81
20260507082036 16 0.0 0.0 0.00 0.00 0.00 80
20260507081033 17 0.0 0.0 0.00 0.00 0.00 80
20260507080031 16 0.0 0.0 0.00 0.00 0.00 81
20260507075028 16 0.0 0.0 0.00 0.00 0.00 82
20260507073023 16 0.0 0.0 0.00 0.00 0.00 84
20260507072021 15 0.0 0.0 0.00 0.00 0.00 84
20260507071019 15 0.0 0.0 0.00 0.00 0.00 86
20260507070016 15 0.0 0.0 0.00 0.00 0.00 87
20260507065014 15 0.0 0.0 0.00 0.00 0.00 87
20260507064011 15 0.0 0.0 0.00 0.00 0.00 87
20260507063009 14 0.0 0.0 0.00 0.00 0.00 90
20260507062006 14 0.0 0.0 0.00 0.00 0.00 93
20260507061004 13 0.0 0.0 0.00 0.00 0.00 92
20260507060002 13 0.0 0.0 0.00 0.00 0.00 93
20260507054959 13 0.0 0.0 0.00 0.00 0.00 93
20260507053956 13 0.0 0.0 0.00 0.00 0.00 94
20260507052954 13 0.0 0.0 0.00 0.00 0.00 96
20260507051951 13 0.0 0.0 0.00 0.00 0.00 96
20260507050949 12 0.0 0.0 0.00 0.00 0.00 98
20260507045946 12 0.0 0.0 0.00 0.00 0.00 98
20260507044944 12 0.0 0.0 0.00 0.00 0.00 98
20260507043941 12 0.0 0.0 0.00 0.00 0.00 99
20260507042939 11 0.0 0.0 0.00 0.00 0.00 99
20260507041936 11 0.0 0.0 0.00 0.00 0.00 99
20260507040934 10 0.0 0.0 0.00 0.00 0.00 99
20260507035932 11 0.0 0.0 0.00 0.00 0.00 99
20260507034929 11 0.0 0.0 0.00 0.00 0.00 99
20260507033927 10 0.0 0.0 0.00 0.00 0.00 99
20260507032924 10 0.0 0.0 0.00 0.00 0.00 99
20260507031922 10 0.0 0.0 0.00 0.00 0.00 99
20260507030919 11 0.0 0.0 0.00 0.00 0.00 99
20260507025917 11 0.0 0.0 0.00 0.00 0.00 99
20260507024914 11 0.0 0.0 0.00 0.00 0.00 99
20260507023912 11 0.0 0.0 0.00 0.00 0.00 99
20260507022909 11 0.0 0.0 0.00 0.00 0.00 99
20260507021907 11 0.0 0.0 0.00 0.00 0.00 99
20260507020904 11 0.0 0.0 0.00 0.00 0.00 99
20260507015902 12 0.0 0.0 0.00 0.00 0.00 99
20260507014859 12 0.0 0.0 0.00 0.00 0.00 99
20260507013857 12 0.0 0.0 0.00 0.00 0.00 99
20260507011852 12 0.0 0.0 0.00 0.00 0.00 99
20260507010847 12 0.0 0.0 0.00 0.00 0.00 99
20260507005845 12 0.0 0.0 0.00 0.00 0.00 99
20260507004841 12 0.0 0.0 0.00 0.00 0.00 99
20260507003839 12 0.0 0.0 0.00 0.00 0.00 99
20260507002836 12 0.0 0.0 0.00 0.00 0.00 99
20260507001834 12 0.0 0.0 0.00 0.00 0.00 99
20260507000831 12 0.0 0.0 0.00 0.00 0.00 99
20260506234826 12 0.0 0.0 0.00 0.00 0.00 99
20260506233824 12 0.0 0.0 0.00 0.00 0.00 99
20260506232822 12 0.0 0.0 0.00 0.00 0.00 99
20260506231819 12 0.0 0.0 0.00 0.00 0.00 98
20260506230818 12 0.0 0.0 0.00 0.00 0.00 98
20260506225814 13 0.0 0.0 0.00 0.00 0.00 98
20260506224812 13 0.0 0.0 0.00 0.00 0.00 98
20260506223809 13 0.0 0.0 0.00 0.00 0.00 98
20260506222807 12 0.0 0.0 0.00 0.00 0.00 99
20260506221804 12 0.0 0.0 0.00 0.00 0.00 99
20260506220802 12 0.0 0.0 0.00 0.00 0.00 99
20260506215800 12 0.0 0.0 0.00 0.00 0.00 99
20260506214757 12 0.0 0.0 0.00 0.00 0.00 99
20260506213754 12 0.0 0.0 0.00 0.00 0.00 99
20260506212752 12 0.0 0.0 0.00 0.00 0.00 98